LEMUR-2-NICHOL (46503 NORAD) Tracking and Keplerian Element Data

This shows tracking and keplerian element data for the satellite.

Feedback or suggestion? Click here.




ElementValue
Catalog46503
NameLEMUR-2-NICHOL
Epoch Orbit477
Epoch Day304.79019865
Epoch Year2020
RAAN237.9144
Inclination97.6669
Eccentricity0.0012122
Argument of Perigee136.8166
Mean Anonmoly223.4011
Mean Motion15.02016122
Decay Rate3.65E-06
L11 46503U 20068T 20304.79019865 .00000365 00000-0 32441-4 0 9990
L22 46503 97.6669 237.9144 0012122 136.8166 223.4011 15.02016122 4773

Live tracking and technical data element details for LEMUR-2-NICHOL (NORAD 46503). LEMUR-2-NICHOL can be tracked NOW for your location showing map with azimuth and elevation plus other details from your city location.

Track the satellite on the map from your city or location and see movement details for azimuth, elevation, latitude, longitude, range, height, and movement on the map or in text.







IsCatalogInMostPopularTable: catalog: 46503, numindb: 6
Update: records affected: 1



GetName: 46503 LEMUR-2-NICHOL

Hit Count: updated at: Sat, 31 Oct 2020 08:29:08 GMT